Flag for Austria Weather past 2 weeks in Lustenau, Vorarlberg, Austria

Now
34 °F

Passing clouds.


Feels Like: 34 °F
Forecast: 28 / 38 °F
Wind: 2 mph from North

Location: Saint Gallen-Altenrhein

Current Time: Feb 1, 2015 at 5:06:20 AM

Latest Report: Feb 1, 2015 at 4:20 AM


Visibility: N/A

Pressure: 29.18 "Hg

Humidity: 70%

Dew point: 25 °F

Location of LustenauLocation

Historic Weather in Lustenau — Graph

°F

Lustenau temperature yesterday

Maximum temperature yesterday: 39 °F (at 11:20 AM)
Minimum temperature yesterday: 32 °F (at 8:20 AM)
Average temperature yesterday: 36 °F

Past Weeks' High & Low Weather Summary

 TemperatureHumidityPressure
High45 °F (Jan 29, 10:20 PM)100% (Jan 17, 7:20 AM)30.39 "Hg (Jan 17, 7:20 AM)
Low27 °F (Jan 19, 4:20 AM)46% (Jan 29, 10:20 PM)28.80 "Hg (Jan 30, 1:20 AM)
Average34 °F85%29.85 "Hg
* Reported Jan 17 3:20 AM — Feb 1 3:50 AM, Lustenau, Weather by CustomWeather, © 2014

Note: Actual official high and low records may vary slightly from our data, if they occured in-between our weather recording intervals... More about our weather records

Advertising

Lustenau weather history for previous 24 hours

 ConditionsComfort  
Time TempWeatherWind HumidityBarometerVisibility
3:50 AM
Feb 1
36 °FMostly cloudy.3 mph70%29.21 "HgN/A
3:20 AM32 °FPartly cloudy.2 mph87%29.21 "HgN/A
2:50 AM32 °FOvercast.2 mph93%29.21 "HgN/A
2:20 AM32 °FPartly cloudy.1 mph93%29.21 "HgN/A
1:50 AM32 °FClear.2 mph87%29.21 "HgN/A
1:20 AM34 °FPartly cloudy.2 mph87%29.21 "HgN/A
12:50 AM36 °FOvercast.6 mph81%29.21 "HgN/A
12:20 AM34 °FOvercast.1 mph87%29.21 "HgN/A
11:50 PM
Jan 31
34 °FOvercast.5 mph87%29.21 "HgN/A
11:20 PM34 °FOvercast.2 mph87%29.18 "HgN/A
10:50 PM34 °FOvercast.5 mph87%29.18 "HgN/A
10:20 PM34 °FMostly cloudy.3 mph87%29.18 "HgN/A
9:50 PM34 °FOvercast.5 mph87%29.18 "HgN/A
9:20 PM34 °FMostly cloudy.5 mph87%29.18 "HgN/A
8:50 PM34 °FSnow flurries. Partly cloudy.5 mph87%29.18 "HgN/A
8:20 PM36 °FPassing clouds.2 mph81%29.18 "HgN/A
7:50 PM36 °FPassing clouds.1 mph81%29.18 "HgN/A
7:20 PM36 °FPassing clouds.2 mph81%29.15 "HgN/A
6:50 PM36 °FPassing clouds.7 mph81%29.15 "HgN/A
6:20 PM37 °FPassing clouds.5 mph65%29.15 "HgN/A
5:50 PM37 °FPassing clouds.2 mph70%29.12 "HgN/A
5:20 PM37 °FPartly sunny.2 mph65%29.12 "HgN/A
4:50 PM37 °FBroken clouds.3 mph65%29.09 "HgN/A
4:20 PM37 °FBroken clouds.5 mph65%29.09 "HgN/A
3:50 PM37 °FPartly sunny.5 mph70%29.09 "HgN/A
3:20 PM39 °FPartly sunny.3 mph61%29.09 "HgN/A
2:50 PM37 °FPartly sunny.5 mph70%29.09 "HgN/A
2:20 PM37 °FPartly sunny.6 mph70%29.09 "HgN/A
1:50 PM37 °FPartly sunny.6 mph70%29.09 "HgN/A
1:20 PM39 °FPartly sunny.5 mph61%29.09 "HgN/A
12:50 PM39 °FScattered clouds.3 mph61%29.09 "HgN/A
12:20 PM39 °FScattered clouds.2 mph56%29.09 "HgN/A
11:50 AM37 °FScattered clouds.2 mph56%29.09 "HgN/A
11:20 AM39 °FPassing clouds.2 mph56%29.09 "HgN/A
10:50 AM37 °FPassing clouds.5 mph60%29.09 "HgN/A
10:20 AM37 °FPassing clouds.7 mph60%29.09 "HgN/A
9:50 AM36 °FPassing clouds.2 mph65%29.09 "HgN/A
9:20 AM34 °FPassing clouds.3 mph75%29.09 "HgN/A
8:50 AM32 °FPartly sunny.5 mph80%29.09 "HgN/A
8:20 AM32 °FPartly sunny.6 mph80%29.09 "HgN/A
7:50 AM34 °FPartly sunny.5 mph81%29.06 "HgN/A
7:20 AM34 °FPassing clouds.2 mph81%29.06 "HgN/A
6:50 AM34 °FPassing clouds.2 mph75%29.06 "HgN/A
6:20 AM36 °FPassing clouds.7 mph70%29.06 "HgN/A
5:50 AM34 °FPartly cloudy.7 mph81%29.06 "HgN/A
5:20 AM36 °FSprinkles. Partly cloudy.7 mph75%29.06 "Hg4 mi
Weather by CustomWeather, © 2014

See weather overviewHow to use our weather pages